[Iaude] MPEC V12: 2016 UG101 [a=2.48,e=0.56,i=3.7,H=24.3]

mpec at si.edu mpec at si.edu
Wed Nov 2 14:56:04 EDT 2016


M.P.E.C. 2016-V12                                Issued 2016 Nov. 2, 18:52 UT
 
     The Minor Planet Electronic Circulars contain information on unusual
         minor planets and routine data on comets.  They are published
    on behalf of Division F of the International Astronomical Union by the
          Minor Planet Center, Smithsonian Astrophysical Observatory,
                          Cambridge, MA 02138, U.S.A.

             Prepared using the Tamkin Foundation Computer Network

                              MPC at CFA.HARVARD.EDU
            URL http://www.minorplanetcenter.net/    ISSN 1523-6714


                                  2016 UG101
 
Observations:
     K16UA1G* C2016 10 30.32795 02 58 52.76 -06 52 48.0          20.9 VqEV012G96
     K16UA1G  C2016 10 30.33269 02 58 54.02 -06 52 29.1          20.9 VqEV012G96
     K16UA1G  C2016 10 30.33746 02 58 55.18 -06 52 11.7          21.0 VqEV012G96
     K16UA1G  C2016 10 30.34218 02 58 56.41 -06 51 54.4          20.9 VqEV012G96
     K16UA1G  C2016 10 30.37910 02 59 05.81 -06 49 34.9          20.7 VqEV012G96
     K16UA1G  C2016 10 30.38115 02 59 06.27 -06 49 28.0          19.9 VqEV012G96
     K16UA1G  C2016 10 30.38316 02 59 06.81 -06 49 19.1          20.8 VqEV012G96
     K16UA1G KC2016 10 31.32571003 03 27.73 -05 50 11.2          21.1 VuEV012H21
     K16UA1G KC2016 10 31.32802703 03 28.35 -05 50 01.8          21.1 VuEV012H21
     K16UA1G KC2016 10 31.32976503 03 28.77 -05 49 55.2          21.1 VuEV012H21
     K16UA1G  C2016 11 02.22430 03 11 58.76 -03 50 49.7          20.2 RoEV012926
     K16UA1G  C2016 11 02.23122 03 12 00.40 -03 50 23.7          20.1 RoEV012926
     K16UA1G  C2016 11 02.23694 03 12 01.74 -03 50 02.5          20.2 RoEV012926
     K16UA1G KC2016 11 02.27273 03 12 10.28 -03 47 49.1                oEV012291
     K16UA1G KC2016 11 02.27451 03 12 10.70 -03 47 42.5                oEV012291
     K16UA1G KC2016 11 02.27630 03 12 11.12 -03 47 35.5                oEV012291
     K16UA1G  C2016 11 02.34371 03 12 26.87 -03 43 23.1          21.3 VqEV012I52
     K16UA1G  C2016 11 02.34750 03 12 27.76 -03 43 09.2          21.2 VqEV012I52
     K16UA1G  C2016 11 02.34926 03 12 28.23 -03 43 03.0          22.0 VqEV012I52
     K16UA1G  C2016 11 02.35102 03 12 28.62 -03 42 56.1          21.1 VqEV012I52
 
Observer details:
291 LPL/Spacewatch II.  Observer M. T. Read.  1.8-m f/2.7 reflector + CCD.
926 Tenagra II Observatory.  Observers M. Schwartz, P. R. Holvorcem.  Measurer
    M. Schwartz.  0.81-m f/7 Ritchey-Chretien + CCD.
G96 Mt. Lemmon Survey.  Observer D. C. Fuls.  Measurers E. J. Christensen,
    D. C. Fuls, A. R. Gibbs, A. D. Grauer, J. A. Johnson, R. A. Kowalski,
    S. M. Larson, G. J. Leonard, R. G. Matheny, R. L. Seaman, F. C. Shelly.
    1.5-m reflector + 10K CCD.
H21 Astronomical Research Observatory, Westfield.  Observer R. Holmes.
    Measurers S. Foglia, L. Buzzi, T. Linder, R. Holmes.  1.3-m f/4.0
    astrograph + CCD.
I52 Steward Observatory, Mt. Lemmon Station.  Observer G. J. Leonard.
    Measurers E. J. Christensen, D. C. Fuls, A. R. Gibbs, A. D. Grauer,
    J. A. Johnson, R. A. Kowalski, S. M. Larson, G. J. Leonard, R. G. Matheny,
    R. L. Seaman, F. C. Shelly.  1.0-m reflector + CCD.
 
Orbital elements:
2016 UG101                                               Earth MOID = 0.1172 AU
Epoch 2016 July 31.0 TT = JDT 2457600.5                 MPC
M 338.65034              (2000.0)            P               Q
n   0.25170081     Peri.  311.64173     +0.86078595     -0.50511024
a   2.4843511      Node    78.78502     +0.48387025     +0.77403108
e   0.5565334      Incl.    3.65549     +0.15785159     +0.38175847
P   3.92           H   24.3           G   0.15           U   8
Residuals in seconds of arc
161030 G96  0.2-  0.1-    161031 H21  0.3-  0.4-    161102 291  0.1-  0.1-
161030 G96  0.7+  0.9+    161031 H21  0.3+  0.2+    161102 291  0.1-  0.2+
161030 G96  0.1-  0.3+    161031 H21  0.0   0.2+    161102 I52  0.3-  0.3+
161030 G96  0.3+  0.2-    161102 926  0.3+  0.1+    161102 I52  0.2-  0.0
161030 G96  0.3+  0.2-    161102 926  0.1+  0.2+    161102 I52  0.6+  0.4-
161030 G96  0.7-  1.0-    161102 926  0.3-  0.0     161102 I52  0.3+  0.1-
161030 G96  0.3-  0.3+    161102 291  0.1-  0.1-

Ephemeris:
2016 UG101               a,e,i = 2.48, 0.56, 4                   q = 1.1017
Date    TT    R. A. (2000) Decl.     Delta      r     Elong.  Phase     V
2016 10 03    00 42 36.7 -25 32 52   0.1467  1.1305   150.5    25.9    21.6
...
2016 10 18    01 55 35.4 -18 29 17   0.1211  1.1040   151.3    25.7    21.1
...
2016 10 26    02 37 44.4 -11 19 05   0.1181  1.1020   154.7    22.7    21.0
...
2016 11 01    03 06 32.0 -05 07 00   0.1216  1.1062   158.0    19.7    20.9
2016 11 02    03 10 57.5 -04 04 15   0.1227  1.1074   158.6    19.1    20.9
2016 11 03    03 15 15.9 -03 01 48   0.1239  1.1087   159.2    18.6    20.9
...
2016 11 09    03 38 28.8 +02 57 47   0.1340  1.1192   162.8    15.2    21.0
...
2016 11 17    04 02 28.3 +09 48 56   0.1545  1.1402   167.9    10.5    21.2
...
2016 12 02    04 30 09.5 +18 35 51   0.2131  1.1987   176.6     2.8    21.6

A. U. Tomatic                (C) Copyright 2016 MPC           M.P.E.C. 2016-V12




More information about the Iaude mailing list